sat.trackr.live / text

‹ back to catalog

SCD 2

NORAD 25504 · 1998-060A

PAYLOAD ACTIVE UNKNOWN

§ Identity

Operator
Country
BRAZ
Launch date
1998-10-23
Launch site
ERAS
Launch vehicle
Mass (kg)
RCS (m²)
0.46

Purposes: earth_obs

External: N2YO · Heavens-Above · Gunter

§ Orbital elements

Epoch: 2026-05-24T22:02:50.953056Z

Period
99.62 min
Inclination
24.9943°
Eccentricity
0.0016497
Mean motion
14.45515411 rev/d
Perigee alt
728.6 km
Apogee alt
752.1 km
Semi-major
7,118.5 km
B*
4.1774e-5
RAAN
215.6577°
Arg perigee
236.9509°
Mean anomaly
284.0833°
Rev number
45,695

§ Raw data

SCD 21 25504U 98060A   26144.91864529  .00000332  00000+0  41774-4 0  99942 25504  24.9943 215.6577 0016497 236.9509 284.0833 14.45515411456951

JSON: /api/v1/satellites/25504 · /tle

For live sub-satellite position, see the globe view (requires WebGL).

§ Visibility from observer

Set your observer location to see the next 7 days of passes ≥ 10°. The values pass through the URL so the page stays shareable.

No JS? Fill the form by hand. The geolocation button needs JavaScript.